Regional Weather Roundup
Issued by NWS

Home | Current Version | Previous Version | Graphics & Text | Print | Product List | Glossary On
Versions: 1 2 3 4 5 6 7 8 9 10 11 12 13 14 15 16 17 18 19 20 21 22 23 24 25 26 27 28 29 30 31 32 33 34 35 36 37 38 39 40 41 42 43 44 45 46 47 48 49 50
000
ASUS43 KFSD 062010
RWRSD

WEATHER ROUNDUP FOR SOUTH DAKOTA
NATIONAL WEATHER SERVICE SIOUX FALLS SD
300 PM CDT WED MAY 06 2015

NOTE: "FAIR" INDICATES FEW OR NO CLOUDS BELOW 12,000 FEET WITH NO
SIGNIFICANT WEATHER AND/OR OBSTRUCTIONS TO VISIBILITY.


SDZ001>005-009-010-012>017-062100-
NORTHWEST AND NORTH CENTRAL SOUTH DAKOTA

CITY           SKY/WX    TMP DP  RH WIND       PRES   REMARKS
BUFFALO          N/A     60  56  86 S5        29.61F
FAITH            N/A     65  57  75 SE10      29.62F
MOBRIDGE       HVY RAIN  65  61  87 E10       29.62F FOG
$$

SDZ012>016-024>037-041>051-057-063-072>074-062100-
SOUTHWEST AND SOUTH CENTRAL SOUTH DAKOTA

CITY           SKY/WX    TMP DP  RH WIND       PRES   REMARKS
RAPID CTY ARPT PTSUNNY   66  53  63 VRB3      29.62F
PIERRE         CLOUDY    69  58  67 SE17      29.61F
CUSTER         RAIN      52  50  93 CALM      29.69S VSB 3/4
ELLSWORTH AFB  PTSUNNY   65  53  64 E2        29.62F
PHILIP         LGT RAIN  63  60  90 S8        29.60S
PINE RIDGE     CLOUDY    68  51  54 SW7       29.61F
SPEARFISH      CLOUDY    57  54  88 NE8       29.68F
WINNER         LGT RAIN  65  58  78 S9        29.65F
$$

SDZ004>011-016>023-039-040-062100-
NORTHEAST SOUTH DAKOTA

CITY           SKY/WX    TMP DP  RH WIND       PRES   REMARKS
ABERDEEN       CLOUDY    65  63  93 SE14      29.69F
WATERTOWN      PTSUNNY   66  61  84 SE17G30   29.73F
BROOKINGS      PTSUNNY   64  61  88 S25G31    29.76S
SISSETON         N/A     64  62  93 SE16      29.75F
$$

SDZ017-020-022-023-036>040-048>070-062100-
SOUTHEAST SOUTH DAKOTA

CITY           SKY/WX    TMP DP  RH WIND       PRES   REMARKS
SIOUX FALLS    LGT RAIN  67  61  81 S16G23    29.75F
HURON          CLOUDY    65  62  90 S17G31    29.66F
CHAMBERLAIN    DRIZZLE   63  61  95 S8        29.65F
MITCHELL       CLOUDY    70  61  73 S23G30    29.69S
YANKTON        PTSUNNY   72  57  60 S21G30    29.71F
$$

ABBREVIATIONS USED IN REMARKS
   TC - TEMPERATURE IN CELSIUS
  WCI - WIND CHILL INDEX
   HX - HEAT INDEX
  VSB - VISIBILITY




USA.gov is the U.S. government's official web portal to all federal, state and local government web resources and services.